Address 0x0db3fe3b770c95a0b99d1ed6f2627933466c0dd8

 
Txn Hash Method
Block
From
To
Value [Txn Fee]
0xca0d877953af4bd8d4caf1a1284d93a86d4ab574893d59a4b463db0154eb4262Remove Liquidity...36248272021-12-06 19:20:2644 mins ago0xe341d029a0541f84f53de23e416bee8132101e48 IN 0x0db3fe3b770c95a0b99d1ed6f2627933466c0dd80 ETH0.00098864631 ETH
0xbb5dfd74c6925396084c2e019e9f4c630733c38b8ac557eaaa179371ec01c08fRemove Liquidity...36190122021-12-06 14:28:015 hrs 36 mins ago0xbb37fa35409a9ca78cebf544ab223bad8470caf5 IN 0x0db3fe3b770c95a0b99d1ed6f2627933466c0dd80 ETH0.000970620348 ETH
0x76bca938c206dfdfb42649f4ed6bc47d4454126813576a4e781d7026dc2071e3Remove Liquidity...36090602021-12-06 7:23:5312 hrs 40 mins ago0x4236cad967f018f4d87fd9c9aa0fb56e4f6fe9c2 IN 0x0db3fe3b770c95a0b99d1ed6f2627933466c0dd80 ETH0.001026731383 ETH
0xbbf84791400ca4f12092b552c5e2c21504c59f4c50db777b6be639e47c0b863aRemove Liquidity...36089742021-12-06 7:21:1012 hrs 43 mins ago0xc66cfef708f49f4171dc764b25f307e770e19917 IN 0x0db3fe3b770c95a0b99d1ed6f2627933466c0dd80 ETH0.001020720866 ETH
0xe23804505fd42c929e0a1ccab9ee27768bc8085a8e7d464912aa19e6ec41ea8fSwap36054142021-12-06 3:34:2916 hrs 29 mins ago0x6ec0cb9b1c0ee1c79fdedff5d54238d1ccb172a2 IN 0x0db3fe3b770c95a0b99d1ed6f2627933466c0dd80 ETH0.000840571993 ETH
0x05e516fa55cb55250b5ee12aa3fe9876fd55549931fba35e8387f8a7cd72ec92Remove Liquidity...36009162021-12-05 23:21:3320 hrs 42 mins ago0x358dbc0b83186591f3202400ffcd70c14c1ff9ae IN 0x0db3fe3b770c95a0b99d1ed6f2627933466c0dd80 ETH0.001050333704 ETH
0xd51b3e06ddcf00588dabd36844f71d5f888575c924cd12998e7f180ba9b75bb1Add Liquidity35953072021-12-05 18:06:161 day 1 hr ago0x704c8c855765b4c053cc2dc02b3f318caf2ab732 IN 0x0db3fe3b770c95a0b99d1ed6f2627933466c0dd80 ETH0.001125810756 ETH
0xe71474a6bb54dac60f10baca3f38af08a7ef82d4c12f63b5ecb5133f160186f4Swap35940042021-12-05 16:45:321 day 3 hrs ago0x97e931494a837ecde1d2f152fcef1c2f5e093356 IN 0x0db3fe3b770c95a0b99d1ed6f2627933466c0dd80 ETH0.000807451125 ETH
0x99cb100b40098e4b6317e5ea86091558855c06c0f37bdf2d999da54f97cc85bbAdd Liquidity35855402021-12-05 10:23:511 day 9 hrs ago0x0c8ee7dbf8cb1d980c107d3df6357deac7dbe9ef IN 0x0db3fe3b770c95a0b99d1ed6f2627933466c0dd80 ETH0.000887747171 ETH
0x9cb4f95aae60675dacb4f474f79a4da8d379d449f321d50e2af8a8a4a225cbe6Swap35835242021-12-05 8:36:111 day 11 hrs ago0x1df8ea15bb725e110118f031e8e71b91abaa2a06 IN 0x0db3fe3b770c95a0b99d1ed6f2627933466c0dd80 ETH0.000851525969 ETH
0x1b21a4a7970339edc22e885f99d6946c7588790a50fd303c3da5ff4a1e36cadbAdd Liquidity35786732021-12-05 2:58:481 day 17 hrs ago0x3fd210200ed05f7f91a11d0ac28ebe8125e0313d IN 0x0db3fe3b770c95a0b99d1ed6f2627933466c0dd80 ETH0.001227113618 ETH
0xf0636bffa5fe03e5eef424cad1ad2eca9928440f5b58f8f39f57a8c28161aa70Remove Liquidity...35743652021-12-04 22:18:481 day 21 hrs ago0x20c37e454783386f687873bdfafc95516bf39fb4 IN 0x0db3fe3b770c95a0b99d1ed6f2627933466c0dd80 ETH0.001172937354 ETH
0xabc7dab99b31b2bb98ec9f5fa73c437e1b5096419fce26b391d8d46984ea11cfSwap35712042021-12-04 19:04:392 days 59 mins ago0x11655d77f6570f42a28107126e6d61f0abd98bdc IN 0x0db3fe3b770c95a0b99d1ed6f2627933466c0dd80 ETH0.001185910728 ETH
0xb10e9cf748868bd8b4351cde4bbcecee243a1f343d361c320495f9703f0fd094Add Liquidity35673402021-12-04 15:13:032 days 4 hrs ago0x43c7d84a3251f98c7d655399550b828872dca59e IN 0x0db3fe3b770c95a0b99d1ed6f2627933466c0dd80 ETH0.001029445974 ETH
0x0498a5d8870161b712f96a1683bd96f3936cb757fa3bdc73f0009e01ff81d039Remove Liquidity...35662022021-12-04 14:16:262 days 5 hrs ago0x67a095e00bb529374a6d4a35dfe41fac82721b38 IN 0x0db3fe3b770c95a0b99d1ed6f2627933466c0dd80 ETH0.00116477961 ETH
0xfbb3a3f8bed81e2168e35daf3d0a9c0b919391dbc9c9579cd325f2058925cc95Remove Liquidity...35647192021-12-04 12:37:282 days 7 hrs ago0x00daef5fdac56c77347f93c46e614fe50adbc328 IN 0x0db3fe3b770c95a0b99d1ed6f2627933466c0dd80 ETH0.001142691667 ETH
0xc8690902626567b99bba53a8ee37e23094a5040c21a793baa9f3eabb8feaf4e8Remove Liquidity...35604962021-12-04 8:50:372 days 11 hrs ago0x0c8ee7dbf8cb1d980c107d3df6357deac7dbe9ef IN 0x0db3fe3b770c95a0b99d1ed6f2627933466c0dd80 ETH0.00091478175 ETH
0xdccf7012545c354e841f49c4c7a4dfa866281439cdfde2f622063c6ce2d1ef38Add Liquidity35598482021-12-04 8:18:372 days 11 hrs ago0xf5dcb2a47f738d8ba39f9fa2ddc7592f268a262a IN 0x0db3fe3b770c95a0b99d1ed6f2627933466c0dd80 ETH0.001248094613 ETH
0xf65a5ea50d70eaecaf371962a31abf2c0f4f51f8ac718d019f88e2365063c7dbRemove Liquidity...35568542021-12-04 6:33:522 days 13 hrs ago0x83dd3b3089ad6d440b884854dafee8b53d162ef7 IN 0x0db3fe3b770c95a0b99d1ed6f2627933466c0dd80 ETH0.001048345831 ETH
0xcb4a688f9392abd78f667971c1235dae415b228cbe6e011374dc3632fe7b390aRemove Liquidity...35536062021-12-04 5:31:202 days 14 hrs ago0x0fbc222adf84bee9169022b28ebc3d32b5c60756 IN 0x0db3fe3b770c95a0b99d1ed6f2627933466c0dd80 ETH0.001065041482 ETH
0x3d67868fa6569abb4bad5421df1adf2d22e748334e74bbb67072b50d3d04b8f3Remove Liquidity...35534152021-12-04 5:28:042 days 14 hrs ago0x746164eef43f58f11f6e86f6e4b08f3d3d4d2721 IN 0x0db3fe3b770c95a0b99d1ed6f2627933466c0dd80 ETH0.001050533501 ETH
0x21ebbb05a901eb47dce157cc9ec01d706405d8833f767991c2d54ca8b87580fbRemove Liquidity...35514502021-12-04 4:58:512 days 15 hrs ago0x92a7f0dfb36af2781f4c56ee7f7458794343cc8b IN 0x0db3fe3b770c95a0b99d1ed6f2627933466c0dd80 ETH0.001060629127 ETH
0xe1e83be938015c2deaccb772207cb1ad0244962f93377aa4d91d1efc8f92a924Remove Liquidity...35496692021-12-04 3:31:462 days 16 hrs ago0x957bb92055c52e7d2a39b0b841896f9826526a52 IN 0x0db3fe3b770c95a0b99d1ed6f2627933466c0dd80 ETH0.001031390448 ETH
0x1bff8ffb6db9ee4d7a6b106ebc7fda887ead1a58bf7e4842c89784a10cfa2494Remove Liquidity...35483282021-12-04 1:52:462 days 18 hrs ago0x2ded933b1588da379fbe9e4d5f09eda2d5d3f564 IN 0x0db3fe3b770c95a0b99d1ed6f2627933466c0dd80 ETH0.00104822728 ETH
0xc6b1e29055fc058e67d544ecbed99f92857540d0d52a501c24ca14abebcf21ecRemove Liquidity...35483082021-12-04 1:52:262 days 18 hrs ago0xe713ce9e3b98c9fa580fc3b6ec3ac850622b5146 IN 0x0db3fe3b770c95a0b99d1ed6f2627933466c0dd80 ETH0.001058239056 ETH
[ Download CSV Export 
Parent Txn Hash Block From To Value
Loading

Contract Name:
0 ETH

Compiler Version
0

Optimization Enabled:
0 ETH

Other Settings:
-NA-
Block Transaction Gas Used Reward
Age Block Fee Address BC Fee Address Voting Power Jailed Incoming
Block Uncle Number Difficulty Gas Used Reward
Loading
Loading
Make sure to use the "Vote Down" button for any spammy posts, and the "Vote Up" for interesting conversations.